Index of /20260424/WXO-DD/model_gdps/15km/12/003
Name Last modified Size Description
Parent Directory -
20260424T12Z_MSC_GDPS_AbsoluteVorticity_IsbL-0200_LatLon0.15_PT003H.grib2 2026-04-24 15:55 1.5M
20260424T12Z_MSC_GDPS_AbsoluteVorticity_IsbL-0250_LatLon0.15_PT003H.grib2 2026-04-24 15:55 1.3M
20260424T12Z_MSC_GDPS_AbsoluteVorticity_IsbL-0500_LatLon0.15_PT003H.grib2 2026-04-24 15:55 1.5M
20260424T12Z_MSC_GDPS_AbsoluteVorticity_IsbL-0700_LatLon0.15_PT003H.grib2 2026-04-24 15:55 1.7M
20260424T12Z_MSC_GDPS_AbsoluteVorticity_IsbL-0850_LatLon0.15_PT003H.grib2 2026-04-24 15:55 1.6M
20260424T12Z_MSC_GDPS_AirTemp_AGL-120m_LatLon0.15_PT003H.grib2 2026-04-24 15:55 789K
20260424T12Z_MSC_GDPS_AirTemp_AGL-2m_LatLon0.15_PT003H.grib2 2026-04-24 15:55 1.0M
20260424T12Z_MSC_GDPS_AirTemp_AGL-40m_LatLon0.15_PT003H.grib2 2026-04-24 15:55 808K
20260424T12Z_MSC_GDPS_AirTemp_AGL-80m_LatLon0.15_PT003H.grib2 2026-04-24 15:55 798K
20260424T12Z_MSC_GDPS_AirTemp_IsbL-0001_LatLon0.15_PT003H.grib2 2026-04-24 15:55 651K
20260424T12Z_MSC_GDPS_AirTemp_IsbL-0005_LatLon0.15_PT003H.grib2 2026-04-24 15:55 751K
20260424T12Z_MSC_GDPS_AirTemp_IsbL-0010_LatLon0.15_PT003H.grib2 2026-04-24 15:55 759K
20260424T12Z_MSC_GDPS_AirTemp_IsbL-0020_LatLon0.15_PT003H.grib2 2026-04-24 15:55 701K
20260424T12Z_MSC_GDPS_AirTemp_IsbL-0030_LatLon0.15_PT003H.grib2 2026-04-24 15:55 753K
20260424T12Z_MSC_GDPS_AirTemp_IsbL-0050_LatLon0.15_PT003H.grib2 2026-04-24 15:55 817K
20260424T12Z_MSC_GDPS_AirTemp_IsbL-0100_LatLon0.15_PT003H.grib2 2026-04-24 15:55 946K
20260424T12Z_MSC_GDPS_AirTemp_IsbL-0150_LatLon0.15_PT003H.grib2 2026-04-24 15:55 1.0M
20260424T12Z_MSC_GDPS_AirTemp_IsbL-0175_LatLon0.15_PT003H.grib2 2026-04-24 15:55 972K
20260424T12Z_MSC_GDPS_AirTemp_IsbL-0200_LatLon0.15_PT003H.grib2 2026-04-24 15:55 1.0M
20260424T12Z_MSC_GDPS_AirTemp_IsbL-0225_LatLon0.15_PT003H.grib2 2026-04-24 15:55 1.0M
20260424T12Z_MSC_GDPS_AirTemp_IsbL-0250_LatLon0.15_PT003H.grib2 2026-04-24 15:55 1.0M
20260424T12Z_MSC_GDPS_AirTemp_IsbL-0275_LatLon0.15_PT003H.grib2 2026-04-24 15:55 1.0M
20260424T12Z_MSC_GDPS_AirTemp_IsbL-0300_LatLon0.15_PT003H.grib2 2026-04-24 15:55 1.0M
20260424T12Z_MSC_GDPS_AirTemp_IsbL-0350_LatLon0.15_PT003H.grib2 2026-04-24 15:55 941K
20260424T12Z_MSC_GDPS_AirTemp_IsbL-0400_LatLon0.15_PT003H.grib2 2026-04-24 15:55 953K
20260424T12Z_MSC_GDPS_AirTemp_IsbL-0450_LatLon0.15_PT003H.grib2 2026-04-24 15:55 1.0M
20260424T12Z_MSC_GDPS_AirTemp_IsbL-0500_LatLon0.15_PT003H.grib2 2026-04-24 15:55 1.0M
20260424T12Z_MSC_GDPS_AirTemp_IsbL-0550_LatLon0.15_PT003H.grib2 2026-04-24 15:55 815K
20260424T12Z_MSC_GDPS_AirTemp_IsbL-0600_LatLon0.15_PT003H.grib2 2026-04-24 15:55 905K
20260424T12Z_MSC_GDPS_AirTemp_IsbL-0650_LatLon0.15_PT003H.grib2 2026-04-24 15:55 926K
20260424T12Z_MSC_GDPS_AirTemp_IsbL-0700_LatLon0.15_PT003H.grib2 2026-04-24 15:55 956K
20260424T12Z_MSC_GDPS_AirTemp_IsbL-0750_LatLon0.15_PT003H.grib2 2026-04-24 15:55 1.0M
20260424T12Z_MSC_GDPS_AirTemp_IsbL-0800_LatLon0.15_PT003H.grib2 2026-04-24 15:55 1.1M
20260424T12Z_MSC_GDPS_AirTemp_IsbL-0850_LatLon0.15_PT003H.grib2 2026-04-24 15:55 1.1M
20260424T12Z_MSC_GDPS_AirTemp_IsbL-0875_LatLon0.15_PT003H.grib2 2026-04-24 15:55 1.1M
20260424T12Z_MSC_GDPS_AirTemp_IsbL-0900_LatLon0.15_PT003H.grib2 2026-04-24 15:55 1.1M
20260424T12Z_MSC_GDPS_AirTemp_IsbL-0925_LatLon0.15_PT003H.grib2 2026-04-24 15:55 1.1M
20260424T12Z_MSC_GDPS_AirTemp_IsbL-0950_LatLon0.15_PT003H.grib2 2026-04-24 15:55 1.1M
20260424T12Z_MSC_GDPS_AirTemp_IsbL-0970_LatLon0.15_PT003H.grib2 2026-04-24 15:55 1.1M
20260424T12Z_MSC_GDPS_AirTemp_IsbL-0985_LatLon0.15_PT003H.grib2 2026-04-24 15:55 1.1M
20260424T12Z_MSC_GDPS_AirTemp_IsbL-1000_LatLon0.15_PT003H.grib2 2026-04-24 15:55 1.1M
20260424T12Z_MSC_GDPS_AirTemp_IsbL-1015_LatLon0.15_PT003H.grib2 2026-04-24 15:55 1.1M
20260424T12Z_MSC_GDPS_Albedo_Sfc_LatLon0.15_PT003H.grib2 2026-04-24 15:55 246K
20260424T12Z_MSC_GDPS_CAPE_Sfc_LatLon0.15_PT003H.grib2 2026-04-24 15:55 4.0M
20260424T12Z_MSC_GDPS_CIN_Sfc_LatLon0.15_PT003H.grib2 2026-04-24 15:55 3.0M
20260424T12Z_MSC_GDPS_CloudWater_EAtm_LatLon0.15_PT003H.grib2 2026-04-24 15:55 527K
20260424T12Z_MSC_GDPS_ConvectivePrecip-Accum_Sfc_LatLon0.15_PT003H.grib2 2026-04-24 15:55 1.4M
20260424T12Z_MSC_GDPS_DewPointDepression_AGL-2m_LatLon0.15_PT003H.grib2 2026-04-24 15:55 756K
20260424T12Z_MSC_GDPS_DewPointDepression_IsbL-0010_LatLon0.15_PT003H.grib2 2026-04-24 15:55 40K
20260424T12Z_MSC_GDPS_DewPointDepression_IsbL-0020_LatLon0.15_PT003H.grib2 2026-04-24 15:55 76K
20260424T12Z_MSC_GDPS_DewPointDepression_IsbL-0030_LatLon0.15_PT003H.grib2 2026-04-24 15:55 79K
20260424T12Z_MSC_GDPS_DewPointDepression_IsbL-0050_LatLon0.15_PT003H.grib2 2026-04-24 15:55 361K
20260424T12Z_MSC_GDPS_DewPointDepression_IsbL-0100_LatLon0.15_PT003H.grib2 2026-04-24 15:55 404K
20260424T12Z_MSC_GDPS_DewPointDepression_IsbL-0150_LatLon0.15_PT003H.grib2 2026-04-24 15:55 480K
20260424T12Z_MSC_GDPS_DewPointDepression_IsbL-0175_LatLon0.15_PT003H.grib2 2026-04-24 15:55 579K
20260424T12Z_MSC_GDPS_DewPointDepression_IsbL-0200_LatLon0.15_PT003H.grib2 2026-04-24 15:55 675K
20260424T12Z_MSC_GDPS_DewPointDepression_IsbL-0225_LatLon0.15_PT003H.grib2 2026-04-24 15:55 789K
20260424T12Z_MSC_GDPS_DewPointDepression_IsbL-0250_LatLon0.15_PT003H.grib2 2026-04-24 15:55 884K
20260424T12Z_MSC_GDPS_DewPointDepression_IsbL-0275_LatLon0.15_PT003H.grib2 2026-04-24 15:55 908K
20260424T12Z_MSC_GDPS_DewPointDepression_IsbL-0300_LatLon0.15_PT003H.grib2 2026-04-24 15:55 956K
20260424T12Z_MSC_GDPS_DewPointDepression_IsbL-0350_LatLon0.15_PT003H.grib2 2026-04-24 15:55 1.0M
20260424T12Z_MSC_GDPS_DewPointDepression_IsbL-0400_LatLon0.15_PT003H.grib2 2026-04-24 15:55 1.0M
20260424T12Z_MSC_GDPS_DewPointDepression_IsbL-0450_LatLon0.15_PT003H.grib2 2026-04-24 15:55 1.0M
20260424T12Z_MSC_GDPS_DewPointDepression_IsbL-0500_LatLon0.15_PT003H.grib2 2026-04-24 15:55 1.0M
20260424T12Z_MSC_GDPS_DewPointDepression_IsbL-0550_LatLon0.15_PT003H.grib2 2026-04-24 15:55 1.0M
20260424T12Z_MSC_GDPS_DewPointDepression_IsbL-0600_LatLon0.15_PT003H.grib2 2026-04-24 15:55 1.0M
20260424T12Z_MSC_GDPS_DewPointDepression_IsbL-0650_LatLon0.15_PT003H.grib2 2026-04-24 15:55 1.0M
20260424T12Z_MSC_GDPS_DewPointDepression_IsbL-0700_LatLon0.15_PT003H.grib2 2026-04-24 15:55 1.1M
20260424T12Z_MSC_GDPS_DewPointDepression_IsbL-0750_LatLon0.15_PT003H.grib2 2026-04-24 15:55 1.1M
20260424T12Z_MSC_GDPS_DewPointDepression_IsbL-0800_LatLon0.15_PT003H.grib2 2026-04-24 15:55 1.1M
20260424T12Z_MSC_GDPS_DewPointDepression_IsbL-0850_LatLon0.15_PT003H.grib2 2026-04-24 15:55 1.1M
20260424T12Z_MSC_GDPS_DewPointDepression_IsbL-0875_LatLon0.15_PT003H.grib2 2026-04-24 15:55 1.1M
20260424T12Z_MSC_GDPS_DewPointDepression_IsbL-0900_LatLon0.15_PT003H.grib2 2026-04-24 15:55 1.1M
20260424T12Z_MSC_GDPS_DewPointDepression_IsbL-0925_LatLon0.15_PT003H.grib2 2026-04-24 15:55 1.0M
20260424T12Z_MSC_GDPS_DewPointDepression_IsbL-0950_LatLon0.15_PT003H.grib2 2026-04-24 15:55 1.0M
20260424T12Z_MSC_GDPS_DewPointDepression_IsbL-0970_LatLon0.15_PT003H.grib2 2026-04-24 15:55 1.0M
20260424T12Z_MSC_GDPS_DewPointDepression_IsbL-0985_LatLon0.15_PT003H.grib2 2026-04-24 15:55 1.0M
20260424T12Z_MSC_GDPS_DewPointDepression_IsbL-1000_LatLon0.15_PT003H.grib2 2026-04-24 15:55 972K
20260424T12Z_MSC_GDPS_DewPointDepression_IsbL-1015_LatLon0.15_PT003H.grib2 2026-04-24 15:55 911K
20260424T12Z_MSC_GDPS_DewPoint_AGL-2m_LatLon0.15_PT003H.grib2 2026-04-24 15:55 608K
20260424T12Z_MSC_GDPS_DownwardLongwaveRadiationFlux-Accum_Sfc_LatLon0.15_PT003H.grib2 2026-04-24 15:55 1.0M
20260424T12Z_MSC_GDPS_DownwardShortwaveRadiationFlux-Accum_NTAtm_LatLon0.15_PT003H.grib2 2026-04-24 15:55 209K
20260424T12Z_MSC_GDPS_DownwardShortwaveRadiationFlux-Accum_Sfc_LatLon0.15_PT003H.grib2 2026-04-24 15:55 586K
20260424T12Z_MSC_GDPS_FreezingRain-Accum1h_Sfc_LatLon0.15_PT003H.grib2 2026-04-24 15:55 54K
20260424T12Z_MSC_GDPS_FreezingRain-Accum3h_Sfc_LatLon0.15_PT003H.grib2 2026-04-24 15:55 58K
20260424T12Z_MSC_GDPS_FreezingRain-Accum_Sfc_LatLon0.15_PT003H.grib2 2026-04-24 15:55 76K
20260424T12Z_MSC_GDPS_GeopotentialHeight_IsbL-0001_LatLon0.15_PT003H.grib2 2026-04-24 15:55 401K
20260424T12Z_MSC_GDPS_GeopotentialHeight_IsbL-0005_LatLon0.15_PT003H.grib2 2026-04-24 15:55 495K
20260424T12Z_MSC_GDPS_GeopotentialHeight_IsbL-0010_LatLon0.15_PT003H.grib2 2026-04-24 15:55 424K
20260424T12Z_MSC_GDPS_GeopotentialHeight_IsbL-0020_LatLon0.15_PT003H.grib2 2026-04-24 15:55 566K
20260424T12Z_MSC_GDPS_GeopotentialHeight_IsbL-0030_LatLon0.15_PT003H.grib2 2026-04-24 15:55 568K
20260424T12Z_MSC_GDPS_GeopotentialHeight_IsbL-0050_LatLon0.15_PT003H.grib2 2026-04-24 15:55 570K
20260424T12Z_MSC_GDPS_GeopotentialHeight_IsbL-0100_LatLon0.15_PT003H.grib2 2026-04-24 15:55 608K
20260424T12Z_MSC_GDPS_GeopotentialHeight_IsbL-0150_LatLon0.15_PT003H.grib2 2026-04-24 15:55 626K
20260424T12Z_MSC_GDPS_GeopotentialHeight_IsbL-0175_LatLon0.15_PT003H.grib2 2026-04-24 15:55 631K
20260424T12Z_MSC_GDPS_GeopotentialHeight_IsbL-0200_LatLon0.15_PT003H.grib2 2026-04-24 15:55 637K
20260424T12Z_MSC_GDPS_GeopotentialHeight_IsbL-0225_LatLon0.15_PT003H.grib2 2026-04-24 15:55 636K
20260424T12Z_MSC_GDPS_GeopotentialHeight_IsbL-0250_LatLon0.15_PT003H.grib2 2026-04-24 15:55 641K
20260424T12Z_MSC_GDPS_GeopotentialHeight_IsbL-0275_LatLon0.15_PT003H.grib2 2026-04-24 15:55 645K
20260424T12Z_MSC_GDPS_GeopotentialHeight_IsbL-0300_LatLon0.15_PT003H.grib2 2026-04-24 15:55 638K
20260424T12Z_MSC_GDPS_GeopotentialHeight_IsbL-0350_LatLon0.15_PT003H.grib2 2026-04-24 15:55 636K
20260424T12Z_MSC_GDPS_GeopotentialHeight_IsbL-0400_LatLon0.15_PT003H.grib2 2026-04-24 15:55 629K
20260424T12Z_MSC_GDPS_GeopotentialHeight_IsbL-0450_LatLon0.15_PT003H.grib2 2026-04-24 15:55 617K
20260424T12Z_MSC_GDPS_GeopotentialHeight_IsbL-0500_LatLon0.15_PT003H.grib2 2026-04-24 15:55 534K
20260424T12Z_MSC_GDPS_GeopotentialHeight_IsbL-0550_LatLon0.15_PT003H.grib2 2026-04-24 15:55 529K
20260424T12Z_MSC_GDPS_GeopotentialHeight_IsbL-0600_LatLon0.15_PT003H.grib2 2026-04-24 15:55 525K
20260424T12Z_MSC_GDPS_GeopotentialHeight_IsbL-0650_LatLon0.15_PT003H.grib2 2026-04-24 15:55 522K
20260424T12Z_MSC_GDPS_GeopotentialHeight_IsbL-0700_LatLon0.15_PT003H.grib2 2026-04-24 15:55 692K
20260424T12Z_MSC_GDPS_GeopotentialHeight_IsbL-0750_LatLon0.15_PT003H.grib2 2026-04-24 15:55 695K
20260424T12Z_MSC_GDPS_GeopotentialHeight_IsbL-0800_LatLon0.15_PT003H.grib2 2026-04-24 15:55 698K
20260424T12Z_MSC_GDPS_GeopotentialHeight_IsbL-0850_LatLon0.15_PT003H.grib2 2026-04-24 15:55 707K
20260424T12Z_MSC_GDPS_GeopotentialHeight_IsbL-0875_LatLon0.15_PT003H.grib2 2026-04-24 15:55 712K
20260424T12Z_MSC_GDPS_GeopotentialHeight_IsbL-0900_LatLon0.15_PT003H.grib2 2026-04-24 15:55 723K
20260424T12Z_MSC_GDPS_GeopotentialHeight_IsbL-0925_LatLon0.15_PT003H.grib2 2026-04-24 15:55 731K
20260424T12Z_MSC_GDPS_GeopotentialHeight_IsbL-0950_LatLon0.15_PT003H.grib2 2026-04-24 15:55 738K
20260424T12Z_MSC_GDPS_GeopotentialHeight_IsbL-0970_LatLon0.15_PT003H.grib2 2026-04-24 15:55 748K
20260424T12Z_MSC_GDPS_GeopotentialHeight_IsbL-0985_LatLon0.15_PT003H.grib2 2026-04-24 15:55 765K
20260424T12Z_MSC_GDPS_GeopotentialHeight_IsbL-1000_LatLon0.15_PT003H.grib2 2026-04-24 15:55 600K
20260424T12Z_MSC_GDPS_GeopotentialHeight_IsbL-1015_LatLon0.15_PT003H.grib2 2026-04-24 15:55 618K
20260424T12Z_MSC_GDPS_Humidex_Sfc_LatLon0.15_PT003H.grib2 2026-04-24 15:55 5.3M
20260424T12Z_MSC_GDPS_IcePellets-Accum1h_Sfc_LatLon0.15_PT003H.grib2 2026-04-24 15:55 14K
20260424T12Z_MSC_GDPS_IcePellets-Accum3h_Sfc_LatLon0.15_PT003H.grib2 2026-04-24 15:55 15K
20260424T12Z_MSC_GDPS_IcePellets-Accum_Sfc_LatLon0.15_PT003H.grib2 2026-04-24 15:55 21K
20260424T12Z_MSC_GDPS_KIndex_Sfc_LatLon0.15_PT003H.grib2 2026-04-24 15:55 6.0M
20260424T12Z_MSC_GDPS_LatentHeatNetFlux_Sfc_LatLon0.15_PT003H.grib2 2026-04-24 15:55 701K
20260424T12Z_MSC_GDPS_LiftedIndex-MU-VT_IsbL-0500_LatLon0.15_PT003H.grib2 2026-04-24 15:55 5.4M
20260424T12Z_MSC_GDPS_NetLongwaveRadiationFlux-Accum_Sfc_LatLon0.15_PT003H.grib2 2026-04-24 15:55 1.2M
20260424T12Z_MSC_GDPS_NetShortwaveRadiationFlux-Accum_Sfc_LatLon0.15_PT003H.grib2 2026-04-24 15:55 546K
20260424T12Z_MSC_GDPS_O3MixingRatio_LatLon0.15_PT003H.grib2 2026-04-24 16:48 2.4M
20260424T12Z_MSC_GDPS_O3_EAtm_LatLon0.15_PT003H.grib2 2026-04-24 16:48 2.5M
20260424T12Z_MSC_GDPS_PlanetaryBoundaryLayerHeight_Sfc_LatLon0.15_PT003H.grib2 2026-04-24 15:55 2.5M
20260424T12Z_MSC_GDPS_Precip-Accum1h_Sfc_LatLon0.15_PT003H.grib2 2026-04-24 15:55 3.4M
20260424T12Z_MSC_GDPS_Precip-Accum3h_Sfc_LatLon0.15_PT003H.grib2 2026-04-24 15:55 3.4M
20260424T12Z_MSC_GDPS_Precip-Accum_Sfc_LatLon0.15_PT003H.grib2 2026-04-24 15:55 3.6M
20260424T12Z_MSC_GDPS_PrecipRate_Sfc_LatLon0.15_PT003H.grib2 2026-04-24 15:55 3.0M
20260424T12Z_MSC_GDPS_PrecipType-Instant_Sfc_LatLon0.15_PT003H.grib2 2026-04-24 15:55 1.5M
20260424T12Z_MSC_GDPS_Pressure_MSL_LatLon0.15_PT003H.grib2 2026-04-24 15:55 824K
20260424T12Z_MSC_GDPS_Pressure_PVU-1.5_LatLon0.15_PT003H.grib2 2026-04-24 15:55 5.8M
20260424T12Z_MSC_GDPS_Pressure_PVU-1_LatLon0.15_PT003H.grib2 2026-04-24 15:55 6.0M
20260424T12Z_MSC_GDPS_Pressure_PVU-2_LatLon0.15_PT003H.grib2 2026-04-24 15:55 5.6M
20260424T12Z_MSC_GDPS_Pressure_Sfc_LatLon0.15_PT003H.grib2 2026-04-24 15:55 1.1M
20260424T12Z_MSC_GDPS_RadiativeTemp_Sfc_LatLon0.15_PT003H.grib2 2026-04-24 15:55 484K
20260424T12Z_MSC_GDPS_Rain-Accum1h_Sfc_LatLon0.15_PT003H.grib2 2026-04-24 15:55 1.7M
20260424T12Z_MSC_GDPS_Rain-Accum3h_Sfc_LatLon0.15_PT003H.grib2 2026-04-24 15:55 1.8M
20260424T12Z_MSC_GDPS_Rain-Accum_Sfc_LatLon0.15_PT003H.grib2 2026-04-24 15:55 2.4M
20260424T12Z_MSC_GDPS_RelativeHumidity_AGL-2m_LatLon0.15_PT003H.grib2 2026-04-24 15:55 1.1M
20260424T12Z_MSC_GDPS_RelativeHumidity_IsbL-0010_LatLon0.15_PT003H.grib2 2026-04-24 15:55 280K
20260424T12Z_MSC_GDPS_RelativeHumidity_IsbL-0020_LatLon0.15_PT003H.grib2 2026-04-24 15:55 295K
20260424T12Z_MSC_GDPS_RelativeHumidity_IsbL-0030_LatLon0.15_PT003H.grib2 2026-04-24 15:55 434K
20260424T12Z_MSC_GDPS_RelativeHumidity_IsbL-0050_LatLon0.15_PT003H.grib2 2026-04-24 15:55 424K
20260424T12Z_MSC_GDPS_RelativeHumidity_IsbL-0100_LatLon0.15_PT003H.grib2 2026-04-24 15:55 503K
20260424T12Z_MSC_GDPS_RelativeHumidity_IsbL-0150_LatLon0.15_PT003H.grib2 2026-04-24 15:55 660K
20260424T12Z_MSC_GDPS_RelativeHumidity_IsbL-0175_LatLon0.15_PT003H.grib2 2026-04-24 15:55 787K
20260424T12Z_MSC_GDPS_RelativeHumidity_IsbL-0200_LatLon0.15_PT003H.grib2 2026-04-24 15:55 706K
20260424T12Z_MSC_GDPS_RelativeHumidity_IsbL-0225_LatLon0.15_PT003H.grib2 2026-04-24 15:55 794K
20260424T12Z_MSC_GDPS_RelativeHumidity_IsbL-0250_LatLon0.15_PT003H.grib2 2026-04-24 15:55 876K
20260424T12Z_MSC_GDPS_RelativeHumidity_IsbL-0275_LatLon0.15_PT003H.grib2 2026-04-24 15:55 895K
20260424T12Z_MSC_GDPS_RelativeHumidity_IsbL-0300_LatLon0.15_PT003H.grib2 2026-04-24 15:55 936K
20260424T12Z_MSC_GDPS_RelativeHumidity_IsbL-0350_LatLon0.15_PT003H.grib2 2026-04-24 15:55 953K
20260424T12Z_MSC_GDPS_RelativeHumidity_IsbL-0400_LatLon0.15_PT003H.grib2 2026-04-24 15:55 1.0M
20260424T12Z_MSC_GDPS_RelativeHumidity_IsbL-0450_LatLon0.15_PT003H.grib2 2026-04-24 15:55 1.0M
20260424T12Z_MSC_GDPS_RelativeHumidity_IsbL-0500_LatLon0.15_PT003H.grib2 2026-04-24 15:55 1.0M
20260424T12Z_MSC_GDPS_RelativeHumidity_IsbL-0550_LatLon0.15_PT003H.grib2 2026-04-24 15:55 1.1M
20260424T12Z_MSC_GDPS_RelativeHumidity_IsbL-0600_LatLon0.15_PT003H.grib2 2026-04-24 15:55 1.1M
20260424T12Z_MSC_GDPS_RelativeHumidity_IsbL-0650_LatLon0.15_PT003H.grib2 2026-04-24 15:55 1.1M
20260424T12Z_MSC_GDPS_RelativeHumidity_IsbL-0700_LatLon0.15_PT003H.grib2 2026-04-24 15:55 1.1M
20260424T12Z_MSC_GDPS_RelativeHumidity_IsbL-0750_LatLon0.15_PT003H.grib2 2026-04-24 15:55 1.2M
20260424T12Z_MSC_GDPS_RelativeHumidity_IsbL-0800_LatLon0.15_PT003H.grib2 2026-04-24 15:55 1.2M
20260424T12Z_MSC_GDPS_RelativeHumidity_IsbL-0850_LatLon0.15_PT003H.grib2 2026-04-24 15:55 1.3M
20260424T12Z_MSC_GDPS_RelativeHumidity_IsbL-0875_LatLon0.15_PT003H.grib2 2026-04-24 15:55 1.3M
20260424T12Z_MSC_GDPS_RelativeHumidity_IsbL-0900_LatLon0.15_PT003H.grib2 2026-04-24 15:55 1.2M
20260424T12Z_MSC_GDPS_RelativeHumidity_IsbL-0925_LatLon0.15_PT003H.grib2 2026-04-24 15:55 1.2M
20260424T12Z_MSC_GDPS_RelativeHumidity_IsbL-0950_LatLon0.15_PT003H.grib2 2026-04-24 15:55 1.2M
20260424T12Z_MSC_GDPS_RelativeHumidity_IsbL-0970_LatLon0.15_PT003H.grib2 2026-04-24 15:55 1.2M
20260424T12Z_MSC_GDPS_RelativeHumidity_IsbL-0985_LatLon0.15_PT003H.grib2 2026-04-24 15:55 1.1M
20260424T12Z_MSC_GDPS_RelativeHumidity_IsbL-1000_LatLon0.15_PT003H.grib2 2026-04-24 15:55 1.1M
20260424T12Z_MSC_GDPS_RelativeHumidity_IsbL-1015_LatLon0.15_PT003H.grib2 2026-04-24 15:55 1.0M
20260424T12Z_MSC_GDPS_RelativeVorticity_IsbL-0200_LatLon0.15_PT003H.grib2 2026-04-24 15:55 1.5M
20260424T12Z_MSC_GDPS_RelativeVorticity_IsbL-0250_LatLon0.15_PT003H.grib2 2026-04-24 15:55 1.3M
20260424T12Z_MSC_GDPS_RelativeVorticity_IsbL-0500_LatLon0.15_PT003H.grib2 2026-04-24 15:55 1.5M
20260424T12Z_MSC_GDPS_RelativeVorticity_IsbL-0700_LatLon0.15_PT003H.grib2 2026-04-24 15:55 1.3M
20260424T12Z_MSC_GDPS_RelativeVorticity_IsbL-0850_LatLon0.15_PT003H.grib2 2026-04-24 15:55 1.6M
20260424T12Z_MSC_GDPS_Runoff-Accum_Sfc_LatLon0.15_PT003H.grib2 2026-04-24 15:55 52K
20260424T12Z_MSC_GDPS_SensibleHeatNetFlux_Sfc_LatLon0.15_PT003H.grib2 2026-04-24 15:55 470K
20260424T12Z_MSC_GDPS_ShowalterIndex_IsbL-0500_LatLon0.15_PT003H.grib2 2026-04-24 15:55 6.2M
20260424T12Z_MSC_GDPS_Snow-Accum1h_Sfc_LatLon0.15_PT003H.grib2 2026-04-24 15:55 1.1M
20260424T12Z_MSC_GDPS_Snow-Accum3h_Sfc_LatLon0.15_PT003H.grib2 2026-04-24 15:55 1.1M
20260424T12Z_MSC_GDPS_Snow-Accum_Sfc_LatLon0.15_PT003H.grib2 2026-04-24 15:55 1.6M
20260424T12Z_MSC_GDPS_SnowDensity_Sfc_LatLon0.15_PT003H.grib2 2026-04-24 15:55 254K
20260424T12Z_MSC_GDPS_SnowDepth_Sfc_LatLon0.15_PT003H.grib2 2026-04-24 15:55 1.7M
20260424T12Z_MSC_GDPS_SoilTemp_DBS-0to10cm_LatLon0.15_PT003H.grib2 2026-04-24 15:55 491K
20260424T12Z_MSC_GDPS_SoilTemp_Sfc_LatLon0.15_PT003H.grib2 2026-04-24 15:55 568K
20260424T12Z_MSC_GDPS_SoilVolumetricIceContent_Sfc_LatLon0.15_PT003H.grib2 2026-04-24 15:55 216K
20260424T12Z_MSC_GDPS_SoilVolumetricWaterContent_DBS-0to10cm_LatLon0.15_PT003H.grib2 2026-04-24 15:55 560K
20260424T12Z_MSC_GDPS_SoilVolumetricWaterContent_DBS-0to1cm_LatLon0.15_PT003H.grib2 2026-04-24 15:55 641K
20260424T12Z_MSC_GDPS_SpecificHumidity_AGL-120m_LatLon0.15_PT003H.grib2 2026-04-24 15:55 1.1M
20260424T12Z_MSC_GDPS_SpecificHumidity_AGL-2m_LatLon0.15_PT003H.grib2 2026-04-24 15:55 1.2M
20260424T12Z_MSC_GDPS_SpecificHumidity_AGL-40m_LatLon0.15_PT003H.grib2 2026-04-24 15:55 1.1M
20260424T12Z_MSC_GDPS_SpecificHumidity_AGL-80m_LatLon0.15_PT003H.grib2 2026-04-24 15:55 1.1M
20260424T12Z_MSC_GDPS_SpecificHumidity_IsbL-0001_LatLon0.15_PT003H.grib2 2026-04-24 15:55 1.0M
20260424T12Z_MSC_GDPS_SpecificHumidity_IsbL-0005_LatLon0.15_PT003H.grib2 2026-04-24 15:55 1.3M
20260424T12Z_MSC_GDPS_SpecificHumidity_IsbL-0010_LatLon0.15_PT003H.grib2 2026-04-24 15:55 1.4M
20260424T12Z_MSC_GDPS_SpecificHumidity_IsbL-0020_LatLon0.15_PT003H.grib2 2026-04-24 15:55 1.4M
20260424T12Z_MSC_GDPS_SpecificHumidity_IsbL-0030_LatLon0.15_PT003H.grib2 2026-04-24 15:55 1.4M
20260424T12Z_MSC_GDPS_SpecificHumidity_IsbL-0050_LatLon0.15_PT003H.grib2 2026-04-24 15:55 1.8M
20260424T12Z_MSC_GDPS_SpecificHumidity_IsbL-0100_LatLon0.15_PT003H.grib2 2026-04-24 15:55 1.1M
20260424T12Z_MSC_GDPS_SpecificHumidity_IsbL-0150_LatLon0.15_PT003H.grib2 2026-04-24 15:55 1.0M
20260424T12Z_MSC_GDPS_SpecificHumidity_IsbL-0175_LatLon0.15_PT003H.grib2 2026-04-24 15:55 1.3M
20260424T12Z_MSC_GDPS_SpecificHumidity_IsbL-0200_LatLon0.15_PT003H.grib2 2026-04-24 15:55 1.3M
20260424T12Z_MSC_GDPS_SpecificHumidity_IsbL-0225_LatLon0.15_PT003H.grib2 2026-04-24 15:55 1.3M
20260424T12Z_MSC_GDPS_SpecificHumidity_IsbL-0250_LatLon0.15_PT003H.grib2 2026-04-24 15:55 1.4M
20260424T12Z_MSC_GDPS_SpecificHumidity_IsbL-0275_LatLon0.15_PT003H.grib2 2026-04-24 15:55 1.3M
20260424T12Z_MSC_GDPS_SpecificHumidity_IsbL-0300_LatLon0.15_PT003H.grib2 2026-04-24 15:55 1.2M
20260424T12Z_MSC_GDPS_SpecificHumidity_IsbL-0350_LatLon0.15_PT003H.grib2 2026-04-24 15:55 1.2M
20260424T12Z_MSC_GDPS_SpecificHumidity_IsbL-0400_LatLon0.15_PT003H.grib2 2026-04-24 15:55 1.5M
20260424T12Z_MSC_GDPS_SpecificHumidity_IsbL-0450_LatLon0.15_PT003H.grib2 2026-04-24 15:55 1.6M
20260424T12Z_MSC_GDPS_SpecificHumidity_IsbL-0500_LatLon0.15_PT003H.grib2 2026-04-24 15:55 1.4M
20260424T12Z_MSC_GDPS_SpecificHumidity_IsbL-0550_LatLon0.15_PT003H.grib2 2026-04-24 15:55 1.6M
20260424T12Z_MSC_GDPS_SpecificHumidity_IsbL-0600_LatLon0.15_PT003H.grib2 2026-04-24 15:55 1.7M
20260424T12Z_MSC_GDPS_SpecificHumidity_IsbL-0650_LatLon0.15_PT003H.grib2 2026-04-24 15:55 1.5M
20260424T12Z_MSC_GDPS_SpecificHumidity_IsbL-0700_LatLon0.15_PT003H.grib2 2026-04-24 15:55 1.6M
20260424T12Z_MSC_GDPS_SpecificHumidity_IsbL-0750_LatLon0.15_PT003H.grib2 2026-04-24 15:55 1.7M
20260424T12Z_MSC_GDPS_SpecificHumidity_IsbL-0800_LatLon0.15_PT003H.grib2 2026-04-24 15:55 1.8M
20260424T12Z_MSC_GDPS_SpecificHumidity_IsbL-0850_LatLon0.15_PT003H.grib2 2026-04-24 15:55 1.9M
20260424T12Z_MSC_GDPS_SpecificHumidity_IsbL-0875_LatLon0.15_PT003H.grib2 2026-04-24 15:55 1.9M
20260424T12Z_MSC_GDPS_SpecificHumidity_IsbL-0900_LatLon0.15_PT003H.grib2 2026-04-24 15:55 1.6M
20260424T12Z_MSC_GDPS_SpecificHumidity_IsbL-0925_LatLon0.15_PT003H.grib2 2026-04-24 15:55 1.6M
20260424T12Z_MSC_GDPS_SpecificHumidity_IsbL-0950_LatLon0.15_PT003H.grib2 2026-04-24 15:55 1.5M
20260424T12Z_MSC_GDPS_SpecificHumidity_IsbL-0970_LatLon0.15_PT003H.grib2 2026-04-24 15:55 1.5M
20260424T12Z_MSC_GDPS_SpecificHumidity_IsbL-0985_LatLon0.15_PT003H.grib2 2026-04-24 15:55 1.5M
20260424T12Z_MSC_GDPS_SpecificHumidity_IsbL-1000_LatLon0.15_PT003H.grib2 2026-04-24 15:55 1.5M
20260424T12Z_MSC_GDPS_SpecificHumidity_IsbL-1015_LatLon0.15_PT003H.grib2 2026-04-24 15:55 1.4M
20260424T12Z_MSC_GDPS_SpecificHumidity_Sfc_LatLon0.15_PT003H.grib2 2026-04-24 15:55 662K
20260424T12Z_MSC_GDPS_Thickness_IsbL-0850to0700_LatLon0.15_PT003H.grib2 2026-04-24 15:55 468K
20260424T12Z_MSC_GDPS_Thickness_IsbL-1000to0500_LatLon0.15_PT003H.grib2 2026-04-24 15:55 371K
20260424T12Z_MSC_GDPS_Thickness_IsbL-1000to0850_LatLon0.15_PT003H.grib2 2026-04-24 15:55 489K
20260424T12Z_MSC_GDPS_TotalCloudCover_Sfc_LatLon0.15_PT003H.grib2 2026-04-24 15:55 818K
20260424T12Z_MSC_GDPS_TotalTotalsIndex_Sfc_LatLon0.15_PT003H.grib2 2026-04-24 15:55 6.2M
20260424T12Z_MSC_GDPS_UVIndex-ClearSky_Sfc_LatLon0.15_PT003H.grib2 2026-04-24 16:48 1.0M
20260424T12Z_MSC_GDPS_UVIndex_Sfc_LatLon0.15_PT003H.grib2 2026-04-24 16:48 1.5M
20260424T12Z_MSC_GDPS_UpwardLongwaveRadiationFlux_NTAtm_LatLon0.15_PT003H.grib2 2026-04-24 15:55 836K
20260424T12Z_MSC_GDPS_VerticalVelocity_IsbL-0200_LatLon0.15_PT003H.grib2 2026-04-24 15:55 1.0M
20260424T12Z_MSC_GDPS_VerticalVelocity_IsbL-0250_LatLon0.15_PT003H.grib2 2026-04-24 15:55 1.1M
20260424T12Z_MSC_GDPS_VerticalVelocity_IsbL-0500_LatLon0.15_PT003H.grib2 2026-04-24 15:55 1.0M
20260424T12Z_MSC_GDPS_VerticalVelocity_IsbL-0600_LatLon0.15_PT003H.grib2 2026-04-24 15:55 1.1M
20260424T12Z_MSC_GDPS_VerticalVelocity_IsbL-0700_LatLon0.15_PT003H.grib2 2026-04-24 15:55 1.1M
20260424T12Z_MSC_GDPS_VerticalVelocity_IsbL-0850_LatLon0.15_PT003H.grib2 2026-04-24 15:55 1.6M
20260424T12Z_MSC_GDPS_WindChill_Sfc_LatLon0.15_PT003H.grib2 2026-04-24 15:55 5.3M
20260424T12Z_MSC_GDPS_WindDir_AGL-10m_LatLon0.15_PT003H.grib2 2026-04-24 15:55 1.3M
20260424T12Z_MSC_GDPS_WindDir_AGL-120m_LatLon0.15_PT003H.grib2 2026-04-24 15:55 1.4M
20260424T12Z_MSC_GDPS_WindDir_AGL-40m_LatLon0.15_PT003H.grib2 2026-04-24 15:55 1.4M
20260424T12Z_MSC_GDPS_WindDir_AGL-80m_LatLon0.15_PT003H.grib2 2026-04-24 15:55 1.4M
20260424T12Z_MSC_GDPS_WindDir_IsbL-0001_LatLon0.15_PT003H.grib2 2026-04-24 15:55 653K
20260424T12Z_MSC_GDPS_WindDir_IsbL-0005_LatLon0.15_PT003H.grib2 2026-04-24 15:55 815K
20260424T12Z_MSC_GDPS_WindDir_IsbL-0010_LatLon0.15_PT003H.grib2 2026-04-24 15:55 875K
20260424T12Z_MSC_GDPS_WindDir_IsbL-0020_LatLon0.15_PT003H.grib2 2026-04-24 15:55 964K
20260424T12Z_MSC_GDPS_WindDir_IsbL-0030_LatLon0.15_PT003H.grib2 2026-04-24 15:55 944K
20260424T12Z_MSC_GDPS_WindDir_IsbL-0050_LatLon0.15_PT003H.grib2 2026-04-24 15:55 1.0M
20260424T12Z_MSC_GDPS_WindDir_IsbL-0100_LatLon0.15_PT003H.grib2 2026-04-24 15:55 1.0M
20260424T12Z_MSC_GDPS_WindDir_IsbL-0150_LatLon0.15_PT003H.grib2 2026-04-24 15:55 1.0M
20260424T12Z_MSC_GDPS_WindDir_IsbL-0175_LatLon0.15_PT003H.grib2 2026-04-24 15:55 1.1M
20260424T12Z_MSC_GDPS_WindDir_IsbL-0200_LatLon0.15_PT003H.grib2 2026-04-24 15:55 1.1M
20260424T12Z_MSC_GDPS_WindDir_IsbL-0225_LatLon0.15_PT003H.grib2 2026-04-24 15:55 1.1M
20260424T12Z_MSC_GDPS_WindDir_IsbL-0250_LatLon0.15_PT003H.grib2 2026-04-24 15:55 1.1M
20260424T12Z_MSC_GDPS_WindDir_IsbL-0275_LatLon0.15_PT003H.grib2 2026-04-24 15:55 1.2M
20260424T12Z_MSC_GDPS_WindDir_IsbL-0300_LatLon0.15_PT003H.grib2 2026-04-24 15:55 1.2M
20260424T12Z_MSC_GDPS_WindDir_IsbL-0350_LatLon0.15_PT003H.grib2 2026-04-24 15:55 1.2M
20260424T12Z_MSC_GDPS_WindDir_IsbL-0400_LatLon0.15_PT003H.grib2 2026-04-24 15:55 1.3M
20260424T12Z_MSC_GDPS_WindDir_IsbL-0450_LatLon0.15_PT003H.grib2 2026-04-24 15:55 1.3M
20260424T12Z_MSC_GDPS_WindDir_IsbL-0500_LatLon0.15_PT003H.grib2 2026-04-24 15:55 1.4M
20260424T12Z_MSC_GDPS_WindDir_IsbL-0550_LatLon0.15_PT003H.grib2 2026-04-24 15:55 1.4M
20260424T12Z_MSC_GDPS_WindDir_IsbL-0600_LatLon0.15_PT003H.grib2 2026-04-24 15:55 1.5M
20260424T12Z_MSC_GDPS_WindDir_IsbL-0650_LatLon0.15_PT003H.grib2 2026-04-24 15:55 1.6M
20260424T12Z_MSC_GDPS_WindDir_IsbL-0700_LatLon0.15_PT003H.grib2 2026-04-24 15:55 1.6M
20260424T12Z_MSC_GDPS_WindDir_IsbL-0750_LatLon0.15_PT003H.grib2 2026-04-24 15:55 1.7M
20260424T12Z_MSC_GDPS_WindDir_IsbL-0800_LatLon0.15_PT003H.grib2 2026-04-24 15:55 1.8M
20260424T12Z_MSC_GDPS_WindDir_IsbL-0850_LatLon0.15_PT003H.grib2 2026-04-24 15:55 1.9M
20260424T12Z_MSC_GDPS_WindDir_IsbL-0875_LatLon0.15_PT003H.grib2 2026-04-24 15:55 2.0M
20260424T12Z_MSC_GDPS_WindDir_IsbL-0900_LatLon0.15_PT003H.grib2 2026-04-24 15:55 2.0M
20260424T12Z_MSC_GDPS_WindDir_IsbL-0925_LatLon0.15_PT003H.grib2 2026-04-24 15:55 2.0M
20260424T12Z_MSC_GDPS_WindDir_IsbL-0950_LatLon0.15_PT003H.grib2 2026-04-24 15:55 2.0M
20260424T12Z_MSC_GDPS_WindDir_IsbL-0970_LatLon0.15_PT003H.grib2 2026-04-24 15:55 2.0M
20260424T12Z_MSC_GDPS_WindDir_IsbL-0985_LatLon0.15_PT003H.grib2 2026-04-24 15:55 2.0M
20260424T12Z_MSC_GDPS_WindDir_IsbL-1000_LatLon0.15_PT003H.grib2 2026-04-24 15:55 2.1M
20260424T12Z_MSC_GDPS_WindDir_IsbL-1015_LatLon0.15_PT003H.grib2 2026-04-24 15:55 2.0M
20260424T12Z_MSC_GDPS_WindGust-Max_AGL-10m_LatLon0.15_PT003H.grib2 2026-04-24 15:55 2.2M
20260424T12Z_MSC_GDPS_WindGust-Min_AGL-10m_LatLon0.15_PT003H.grib2 2026-04-24 15:55 2.2M
20260424T12Z_MSC_GDPS_WindGust_AGL-10m_LatLon0.15_PT003H.grib2 2026-04-24 15:55 2.2M
20260424T12Z_MSC_GDPS_WindSpeed_AGL-10m_LatLon0.15_PT003H.grib2 2026-04-24 15:55 1.1M
20260424T12Z_MSC_GDPS_WindSpeed_AGL-120m_LatLon0.15_PT003H.grib2 2026-04-24 15:55 1.2M
20260424T12Z_MSC_GDPS_WindSpeed_AGL-40m_LatLon0.15_PT003H.grib2 2026-04-24 15:55 1.2M
20260424T12Z_MSC_GDPS_WindSpeed_AGL-80m_LatLon0.15_PT003H.grib2 2026-04-24 15:55 1.2M
20260424T12Z_MSC_GDPS_WindSpeed_IsbL-0001_LatLon0.15_PT003H.grib2 2026-04-24 15:55 642K
20260424T12Z_MSC_GDPS_WindSpeed_IsbL-0005_LatLon0.15_PT003H.grib2 2026-04-24 15:55 701K
20260424T12Z_MSC_GDPS_WindSpeed_IsbL-0010_LatLon0.15_PT003H.grib2 2026-04-24 15:55 638K
20260424T12Z_MSC_GDPS_WindSpeed_IsbL-0020_LatLon0.15_PT003H.grib2 2026-04-24 15:55 869K
20260424T12Z_MSC_GDPS_WindSpeed_IsbL-0030_LatLon0.15_PT003H.grib2 2026-04-24 15:55 950K
20260424T12Z_MSC_GDPS_WindSpeed_IsbL-0050_LatLon0.15_PT003H.grib2 2026-04-24 15:55 1.0M
20260424T12Z_MSC_GDPS_WindSpeed_IsbL-0100_LatLon0.15_PT003H.grib2 2026-04-24 15:55 1.1M
20260424T12Z_MSC_GDPS_WindSpeed_IsbL-0150_LatLon0.15_PT003H.grib2 2026-04-24 15:55 1.0M
20260424T12Z_MSC_GDPS_WindSpeed_IsbL-0175_LatLon0.15_PT003H.grib2 2026-04-24 15:55 1.0M
20260424T12Z_MSC_GDPS_WindSpeed_IsbL-0200_LatLon0.15_PT003H.grib2 2026-04-24 15:55 1.1M
20260424T12Z_MSC_GDPS_WindSpeed_IsbL-0225_LatLon0.15_PT003H.grib2 2026-04-24 15:55 1.1M
20260424T12Z_MSC_GDPS_WindSpeed_IsbL-0250_LatLon0.15_PT003H.grib2 2026-04-24 15:55 1.1M
20260424T12Z_MSC_GDPS_WindSpeed_IsbL-0275_LatLon0.15_PT003H.grib2 2026-04-24 15:55 1.1M
20260424T12Z_MSC_GDPS_WindSpeed_IsbL-0300_LatLon0.15_PT003H.grib2 2026-04-24 15:55 1.1M
20260424T12Z_MSC_GDPS_WindSpeed_IsbL-0350_LatLon0.15_PT003H.grib2 2026-04-24 15:55 1.1M
20260424T12Z_MSC_GDPS_WindSpeed_IsbL-0400_LatLon0.15_PT003H.grib2 2026-04-24 15:55 1.1M
20260424T12Z_MSC_GDPS_WindSpeed_IsbL-0450_LatLon0.15_PT003H.grib2 2026-04-24 15:55 1.1M
20260424T12Z_MSC_GDPS_WindSpeed_IsbL-0500_LatLon0.15_PT003H.grib2 2026-04-24 15:55 1.1M
20260424T12Z_MSC_GDPS_WindSpeed_IsbL-0550_LatLon0.15_PT003H.grib2 2026-04-24 15:55 1.1M
20260424T12Z_MSC_GDPS_WindSpeed_IsbL-0600_LatLon0.15_PT003H.grib2 2026-04-24 15:55 1.4M
20260424T12Z_MSC_GDPS_WindSpeed_IsbL-0650_LatLon0.15_PT003H.grib2 2026-04-24 15:55 1.5M
20260424T12Z_MSC_GDPS_WindSpeed_IsbL-0700_LatLon0.15_PT003H.grib2 2026-04-24 15:55 1.5M
20260424T12Z_MSC_GDPS_WindSpeed_IsbL-0750_LatLon0.15_PT003H.grib2 2026-04-24 15:55 1.6M
20260424T12Z_MSC_GDPS_WindSpeed_IsbL-0800_LatLon0.15_PT003H.grib2 2026-04-24 15:55 1.8M
20260424T12Z_MSC_GDPS_WindSpeed_IsbL-0850_LatLon0.15_PT003H.grib2 2026-04-24 15:55 1.7M
20260424T12Z_MSC_GDPS_WindSpeed_IsbL-0875_LatLon0.15_PT003H.grib2 2026-04-24 15:55 1.8M
20260424T12Z_MSC_GDPS_WindSpeed_IsbL-0900_LatLon0.15_PT003H.grib2 2026-04-24 15:55 1.8M
20260424T12Z_MSC_GDPS_WindSpeed_IsbL-0925_LatLon0.15_PT003H.grib2 2026-04-24 15:55 1.9M
20260424T12Z_MSC_GDPS_WindSpeed_IsbL-0950_LatLon0.15_PT003H.grib2 2026-04-24 15:55 1.9M
20260424T12Z_MSC_GDPS_WindSpeed_IsbL-0970_LatLon0.15_PT003H.grib2 2026-04-24 15:55 1.8M
20260424T12Z_MSC_GDPS_WindSpeed_IsbL-0985_LatLon0.15_PT003H.grib2 2026-04-24 15:55 1.9M
20260424T12Z_MSC_GDPS_WindSpeed_IsbL-1000_LatLon0.15_PT003H.grib2 2026-04-24 15:55 1.8M
20260424T12Z_MSC_GDPS_WindSpeed_IsbL-1015_LatLon0.15_PT003H.grib2 2026-04-24 15:55 1.8M
20260424T12Z_MSC_GDPS_WindU_AGL-10m_LatLon0.15_PT003H.grib2 2026-04-24 15:55 1.3M
20260424T12Z_MSC_GDPS_WindU_AGL-120m_LatLon0.15_PT003H.grib2 2026-04-24 15:55 1.0M
20260424T12Z_MSC_GDPS_WindU_AGL-40m_LatLon0.15_PT003H.grib2 2026-04-24 15:55 971K
20260424T12Z_MSC_GDPS_WindU_AGL-80m_LatLon0.15_PT003H.grib2 2026-04-24 15:55 1.0M
20260424T12Z_MSC_GDPS_WindU_IsbL-0001_LatLon0.15_PT003H.grib2 2026-04-24 15:55 645K
20260424T12Z_MSC_GDPS_WindU_IsbL-0005_LatLon0.15_PT003H.grib2 2026-04-24 15:55 696K
20260424T12Z_MSC_GDPS_WindU_IsbL-0010_LatLon0.15_PT003H.grib2 2026-04-24 15:55 711K
20260424T12Z_MSC_GDPS_WindU_IsbL-0020_LatLon0.15_PT003H.grib2 2026-04-24 15:55 741K
20260424T12Z_MSC_GDPS_WindU_IsbL-0030_LatLon0.15_PT003H.grib2 2026-04-24 15:55 743K
20260424T12Z_MSC_GDPS_WindU_IsbL-0050_LatLon0.15_PT003H.grib2 2026-04-24 15:55 712K
20260424T12Z_MSC_GDPS_WindU_IsbL-0100_LatLon0.15_PT003H.grib2 2026-04-24 15:55 919K
20260424T12Z_MSC_GDPS_WindU_IsbL-0150_LatLon0.15_PT003H.grib2 2026-04-24 15:55 1.0M
20260424T12Z_MSC_GDPS_WindU_IsbL-0175_LatLon0.15_PT003H.grib2 2026-04-24 15:55 818K
20260424T12Z_MSC_GDPS_WindU_IsbL-0200_LatLon0.15_PT003H.grib2 2026-04-24 15:55 850K
20260424T12Z_MSC_GDPS_WindU_IsbL-0225_LatLon0.15_PT003H.grib2 2026-04-24 15:55 864K
20260424T12Z_MSC_GDPS_WindU_IsbL-0250_LatLon0.15_PT003H.grib2 2026-04-24 15:55 868K
20260424T12Z_MSC_GDPS_WindU_IsbL-0275_LatLon0.15_PT003H.grib2 2026-04-24 15:55 896K
20260424T12Z_MSC_GDPS_WindU_IsbL-0300_LatLon0.15_PT003H.grib2 2026-04-24 15:55 889K
20260424T12Z_MSC_GDPS_WindU_IsbL-0350_LatLon0.15_PT003H.grib2 2026-04-24 15:55 904K
20260424T12Z_MSC_GDPS_WindU_IsbL-0400_LatLon0.15_PT003H.grib2 2026-04-24 15:55 905K
20260424T12Z_MSC_GDPS_WindU_IsbL-0450_LatLon0.15_PT003H.grib2 2026-04-24 15:55 1.1M
20260424T12Z_MSC_GDPS_WindU_IsbL-0500_LatLon0.15_PT003H.grib2 2026-04-24 15:55 1.1M
20260424T12Z_MSC_GDPS_WindU_IsbL-0550_LatLon0.15_PT003H.grib2 2026-04-24 15:55 1.1M
20260424T12Z_MSC_GDPS_WindU_IsbL-0600_LatLon0.15_PT003H.grib2 2026-04-24 15:55 1.2M
20260424T12Z_MSC_GDPS_WindU_IsbL-0650_LatLon0.15_PT003H.grib2 2026-04-24 15:55 1.2M
20260424T12Z_MSC_GDPS_WindU_IsbL-0700_LatLon0.15_PT003H.grib2 2026-04-24 15:55 1.2M
20260424T12Z_MSC_GDPS_WindU_IsbL-0750_LatLon0.15_PT003H.grib2 2026-04-24 15:55 1.3M
20260424T12Z_MSC_GDPS_WindU_IsbL-0800_LatLon0.15_PT003H.grib2 2026-04-24 15:55 1.4M
20260424T12Z_MSC_GDPS_WindU_IsbL-0850_LatLon0.15_PT003H.grib2 2026-04-24 15:55 1.4M
20260424T12Z_MSC_GDPS_WindU_IsbL-0875_LatLon0.15_PT003H.grib2 2026-04-24 15:55 1.4M
20260424T12Z_MSC_GDPS_WindU_IsbL-0900_LatLon0.15_PT003H.grib2 2026-04-24 15:55 1.5M
20260424T12Z_MSC_GDPS_WindU_IsbL-0925_LatLon0.15_PT003H.grib2 2026-04-24 15:55 1.5M
20260424T12Z_MSC_GDPS_WindU_IsbL-0950_LatLon0.15_PT003H.grib2 2026-04-24 15:55 1.4M
20260424T12Z_MSC_GDPS_WindU_IsbL-0970_LatLon0.15_PT003H.grib2 2026-04-24 15:55 1.4M
20260424T12Z_MSC_GDPS_WindU_IsbL-0985_LatLon0.15_PT003H.grib2 2026-04-24 15:55 1.4M
20260424T12Z_MSC_GDPS_WindU_IsbL-1000_LatLon0.15_PT003H.grib2 2026-04-24 15:55 1.4M
20260424T12Z_MSC_GDPS_WindU_IsbL-1015_LatLon0.15_PT003H.grib2 2026-04-24 15:55 1.4M
20260424T12Z_MSC_GDPS_WindV_AGL-10m_LatLon0.15_PT003H.grib2 2026-04-24 15:55 1.6M
20260424T12Z_MSC_GDPS_WindV_AGL-120m_LatLon0.15_PT003H.grib2 2026-04-24 15:55 972K
20260424T12Z_MSC_GDPS_WindV_AGL-40m_LatLon0.15_PT003H.grib2 2026-04-24 15:55 1.2M
20260424T12Z_MSC_GDPS_WindV_AGL-80m_LatLon0.15_PT003H.grib2 2026-04-24 15:55 973K
20260424T12Z_MSC_GDPS_WindV_IsbL-0001_LatLon0.15_PT003H.grib2 2026-04-24 15:55 708K
20260424T12Z_MSC_GDPS_WindV_IsbL-0005_LatLon0.15_PT003H.grib2 2026-04-24 15:55 859K
20260424T12Z_MSC_GDPS_WindV_IsbL-0010_LatLon0.15_PT003H.grib2 2026-04-24 15:55 892K
20260424T12Z_MSC_GDPS_WindV_IsbL-0020_LatLon0.15_PT003H.grib2 2026-04-24 15:55 853K
20260424T12Z_MSC_GDPS_WindV_IsbL-0030_LatLon0.15_PT003H.grib2 2026-04-24 15:55 939K
20260424T12Z_MSC_GDPS_WindV_IsbL-0050_LatLon0.15_PT003H.grib2 2026-04-24 15:55 916K
20260424T12Z_MSC_GDPS_WindV_IsbL-0100_LatLon0.15_PT003H.grib2 2026-04-24 15:55 1.1M
20260424T12Z_MSC_GDPS_WindV_IsbL-0150_LatLon0.15_PT003H.grib2 2026-04-24 15:55 1.0M
20260424T12Z_MSC_GDPS_WindV_IsbL-0175_LatLon0.15_PT003H.grib2 2026-04-24 15:55 818K
20260424T12Z_MSC_GDPS_WindV_IsbL-0200_LatLon0.15_PT003H.grib2 2026-04-24 15:55 849K
20260424T12Z_MSC_GDPS_WindV_IsbL-0225_LatLon0.15_PT003H.grib2 2026-04-24 15:55 860K
20260424T12Z_MSC_GDPS_WindV_IsbL-0250_LatLon0.15_PT003H.grib2 2026-04-24 15:55 861K
20260424T12Z_MSC_GDPS_WindV_IsbL-0275_LatLon0.15_PT003H.grib2 2026-04-24 15:55 891K
20260424T12Z_MSC_GDPS_WindV_IsbL-0300_LatLon0.15_PT003H.grib2 2026-04-24 15:55 880K
20260424T12Z_MSC_GDPS_WindV_IsbL-0350_LatLon0.15_PT003H.grib2 2026-04-24 15:55 891K
20260424T12Z_MSC_GDPS_WindV_IsbL-0400_LatLon0.15_PT003H.grib2 2026-04-24 15:55 894K
20260424T12Z_MSC_GDPS_WindV_IsbL-0450_LatLon0.15_PT003H.grib2 2026-04-24 15:55 1.1M
20260424T12Z_MSC_GDPS_WindV_IsbL-0500_LatLon0.15_PT003H.grib2 2026-04-24 15:55 1.1M
20260424T12Z_MSC_GDPS_WindV_IsbL-0550_LatLon0.15_PT003H.grib2 2026-04-24 15:55 1.1M
20260424T12Z_MSC_GDPS_WindV_IsbL-0600_LatLon0.15_PT003H.grib2 2026-04-24 15:55 1.1M
20260424T12Z_MSC_GDPS_WindV_IsbL-0650_LatLon0.15_PT003H.grib2 2026-04-24 15:55 1.1M
20260424T12Z_MSC_GDPS_WindV_IsbL-0700_LatLon0.15_PT003H.grib2 2026-04-24 15:55 1.2M
20260424T12Z_MSC_GDPS_WindV_IsbL-0750_LatLon0.15_PT003H.grib2 2026-04-24 15:55 1.3M
20260424T12Z_MSC_GDPS_WindV_IsbL-0800_LatLon0.15_PT003H.grib2 2026-04-24 15:55 1.3M
20260424T12Z_MSC_GDPS_WindV_IsbL-0850_LatLon0.15_PT003H.grib2 2026-04-24 15:55 1.4M
20260424T12Z_MSC_GDPS_WindV_IsbL-0875_LatLon0.15_PT003H.grib2 2026-04-24 15:55 1.4M
20260424T12Z_MSC_GDPS_WindV_IsbL-0900_LatLon0.15_PT003H.grib2 2026-04-24 15:55 1.4M
20260424T12Z_MSC_GDPS_WindV_IsbL-0925_LatLon0.15_PT003H.grib2 2026-04-24 15:55 1.4M
20260424T12Z_MSC_GDPS_WindV_IsbL-0950_LatLon0.15_PT003H.grib2 2026-04-24 15:55 1.4M
20260424T12Z_MSC_GDPS_WindV_IsbL-0970_LatLon0.15_PT003H.grib2 2026-04-24 15:55 1.4M
20260424T12Z_MSC_GDPS_WindV_IsbL-0985_LatLon0.15_PT003H.grib2 2026-04-24 15:55 1.4M
20260424T12Z_MSC_GDPS_WindV_IsbL-1000_LatLon0.15_PT003H.grib2 2026-04-24 15:55 1.7M
20260424T12Z_MSC_GDPS_WindV_IsbL-1015_LatLon0.15_PT003H.grib2 2026-04-24 15:55 1.6M